User: anonymous   Login
Location: Columbia
(38.9520°N, 92.3340°W)
Time: 05:22:49
(UTC-05:00)
Language:

Cosmos 1633 - Orbit

View from above orbital plane
View from above orbital plane
View from above satellite
View from above satellite

Ground track
Ground track

The orbit data is extracted from the following two-line orbital elements,

1 15592U 85020A   17080.91390375 +.00001605 +00000-0 +56977-4 0  9990
2 15592 082.5385 046.7307 0015230 121.9553 238.3170 15.28171884750684
Epoch (UTC): 21 March 2017 21:56:01
Eccentricity: 0.0015230
inclination: 82.5385°
perigee height: 471 km
apogee height: 492 km
right ascension of ascending node: 46.7307°
argument of perigee: 121.9553°
revolutions per day: 15.28171884
mean anomaly at epoch: 238.3170°
orbit number at epoch: 75068

The dashed part of the orbit path shows where the satellite is in the earth's shadow,  

DLR